Wind_Speed
35 34 31 29 28 26 19 17 17 5 4 4 7 6 4 11 6 3 2 4 3 4 4 3 5 5 6 5 5 5 5 5 3 2 1 1 2 4 5 5 6 6 6 7
35 31 29 32 32 32 26 21 16 13 5 6 5 9 5 7 10 3 4 3 2 4 6 7 6 5 6 7 6 3 3 2 2 2 3 5 6 7 8 9 10 11 11 11
29 26 37 34 29 36 29 23 20 8 11 15 14 15 5 7 11 6 12 8 9 7 10 10 7 6 6 7 7 6 4 3 4 7 9 10 10 11 12 12 14 15 15 15
33 34 41 40 31 33 33 27 20 21 20 17 20 20 10 6 12 5 8 8 6 6 5 11 10 9 10 10 9 8 7 7 8 11 14 14 14 15 17 18 18 19 20 20
37 34 40 41 33 31 34 27 26 24 20 19 23 26 15 16 15 9 6 5 10 13 9 10 13 14 15 15 13 12 12 12 14 16 18 20 20 20 20 22 21 22 22 23
42 38 43 45 35 38 34 35 34 28 26 30 26 25 22 17 8 14 12 11 12 10 14 13 12 14 16 19 17 14 16 17 20 22 23 24 28 24 24 25 24 22 23 24
48 47 48 48 45 46 44 41 39 38 36 34 30 31 20 6 9 11 10 12 8 10 9 13 16 13 15 19 25 25 22 23 22 23 22 20 20 20 23 25 24 23 24 25
52 52 51 52 49 49 47 47 45 38 32 31 34 38 13 11 12 9 9 14 8 4 10 10 19 28 24 20 22 20 15 17 19 18 16 18 18 19 21 23 24 24 26 27
55 52 52 55 50 50 52 56 45 44 39 37 35 36 30 18 17 18 9 14 9 9 9 14 11 11 17 20 17 17 17 17 18 18 18 20 21 23 24 23 24 25 27 29
51 52 51 51 54 54 57 55 49 50 45 45 45 44 44 35 22 19 14 14 12 12 9 13 9 7 5 7 12 15 18 21 22 23 23 23 27 28 27 25 26 26 27 32
44 53 49 51 56 54 58 56 57 49 45 41 35 33 31 35 24 18 16 19 15 11 8 12 15 2 3 1 7 15 19 23 24 26 28 28 30 31 32 30 29 27 28 32
39 46 47 51 52 52 59 53 52 48 40 36 33 33 31 26 21 17 21 16 12 12 12 12 14 12 7 8 11 11 16 18 21 26 29 30 32 33 33 33 32 30 31 30
31 42 48 48 52 53 56 49 41 31 33 35 31 29 28 31 28 21 19 20 21 23 21 15 8 9 12 10 17 20 23 26 26 25 27 29 30 31 32 35 34 32 33 32
31 31 45 52 48 51 52 44 36 31 34 36 33 30 27 27 32 31 27 23 21 17 15 15 18 17 12 14 22 21 25 28 33 33 32 32 36 34 34 37 33 37 36 34
38 34 28 45 48 52 45 43 35 35 30 31 27 29 29 30 31 29 23 22 19 14 18 17 21 27 26 27 24 21 29 34 36 36 36 35 38 35 33 39 45 41 42 34
38 36 24 34 45 53 47 42 40 36 33 27 26 28 23 24 27 28 31 27 23 24 22 32 36 34 30 28 28 30 33 35 34 36 38 38 34 31 36 35 37 45 46 38
39 38 34 34 45 52 55 40 42 41 39 36 38 28 28 31 35 30 29 29 28 26 28 30 36 38 38 36 35 31 36 35 34 39 40 43 48 33 44 38 40 48 51 44
38 36 35 33 44 51 50 37 37 36 43 41 44 38 35 34 28 29 22 26 29 31 29 33 37 40 43 46 44 35 39 39 44 47 44 42 31 39 40 49 49 46 50 45
42 38 37 34 41 43 49 41 34 33 33 50 48 39 41 25 33 27 30 34 35 35 36 39 42 44 47 46 39 43 42 42 37 39 44 41 43 42 44 47 48 51 54 54
44 42 36 39 38 40 47 48 37 37 41 49 57 41 29 28 31 29 32 38 40 38 39 41 45 45 47 40 38 41 48 41 41 43 45 44 42 41 42 43 46 52 65 58
42 44 35 42 43 44 41 32 32 37 41 44 39 29 33 34 35 33 35 41 43 43 44 48 51 51 47 46 36 34 38 42 46 48 45 45 43 42 41 44 52 54 58 55
47 44 32 37 49 48 45 46 49 45 44 39 39 43 42 41 33 32 38 40 46 46 53 54 51 48 53 46 32 34 37 39 44 46 46 44 39 39 43 43 37 44 40 19
48 49 37 44 43 47 50 42 37 37 36 39 44 46 46 46 44 42 45 46 49 44 48 50 54 43 42 41 39 38 41 45 46 46 46 43 42 41 39 38 34 38 43 56
54 39 40 39 40 45 43 43 48 49 50 51 51 46 43 45 46 50 48 44 49 49 39 41 46 40 41 47 47 48 51 49 45 42 42 42 41 42 39 37 50 50 49 42
52 50 42 46 52 39 48 46 44 42 39 41 41 41 42 45 51 51 46 51 43 40 52 40 43 44 49 41 50 46 50 49 35 37 38 38 39 50 37 45 55 53 54 57
39 39 40 38 41 46 52 55 45 47 49 53 52 48 53 50 35 46 46 40 35 34 31 26 32 41 39 44 49 39 43 48 44 46 45 46 40 51 51 48 57 55 56 51
Wind_Direction
220 220 221 218 216 242 221 181 145 174 111 77 16 320 31 15 351 345 284 295 269 309 291 239 208 191 163 153 135 129 124 111 126 126 120 326 312 311 325 337 340 342 344 340
222 220 219 218 212 222 229 196 164 201 204 241 281 291 336 344 350 297 281 263 249 294 264 256 226 200 173 157 154 157 134 152 223 280 324 320 314 312 315 317 319 320 321 320
226 216 217 220 221 213 223 205 190 194 242 259 249 254 349 307 322 288 340 310 285 295 289 237 249 232 204 192 188 203 210 246 298 310 307 301 300 302 305 309 308 311 314 317
217 211 215 217 213 217 222 202 194 227 231 262 276 275 265 288 291 256 305 343 306 320 312 257 236 240 236 220 219 230 241 261 276 280 285 292 298 302 303 299 301 306 311 313
213 209 215 220 212 214 208 201 213 222 245 251 260 261 248 250 263 296 296 312 334 316 300 294 243 239 246 244 236 244 255 263 267 268 278 290 295 297 296 294 294 298 304 307
212 208 209 219 209 208 199 206 215 218 229 244 250 253 255 251 270 287 301 289 317 295 294 303 247 244 249 255 248 247 260 269 273 277 283 292 288 293 290 289 289 294 301 305
209 205 208 210 209 203 205 204 214 219 221 241 245 246 250 268 333 308 277 273 302 302 314 266 253 246 262 263 258 261 267 275 283 287 289 285 281 285 288 288 290 298 301 305
215 208 205 210 214 203 205 204 216 224 232 243 249 248 245 273 292 255 244 266 292 316 332 319 263 256 257 262 269 276 283 289 283 290 297 297 294 289 289 295 300 301 304 310
219 212 209 210 210 203 206 207 215 224 227 239 248 251 249 256 246 258 245 257 271 270 326 320 314 247 247 257 269 288 297 297 298 303 307 306 303 297 296 298 299 302 305 306
223 219 213 212 209 204 209 210 214 224 232 237 241 245 243 244 229 250 239 248 260 274 323 319 303 228 218 262 275 285 292 295 299 300 297 299 301 300 300 298 300 300 300 301
227 224 213 212 216 210 212 214 219 226 234 245 254 229 224 224 231 231 243 254 261 283 308 304 318 316 99 4 328 322 305 293 292 290 289 293 296 298 298 297 296 297 296 293
222 226 211 218 219 215 215 219 220 226 232 241 240 232 224 238 238 233 240 255 264 274 287 297 292 300 326 335 332 338 338 314 295 291 291 294 294 296 293 291 292 292 294 294
217 222 217 211 212 216 215 218 215 224 236 239 236 240 233 242 251 240 247 255 270 282 295 298 317 298 315 307 330 325 324 327 321 308 299 291 288 289 285 288 291 293 296 298
208 231 226 215 211 211 211 214 215 222 231 239 243 250 253 250 249 255 260 271 273 278 290 294 299 316 294 297 311 318 330 325 321 311 305 295 288 282 281 287 289 287 292 295
211 218 218 215 206 208 215 218 217 220 233 239 247 254 254 255 249 260 268 261 266 272 268 281 293 297 301 312 311 310 322 326 316 310 302 300 281 279 280 285 285 286 286 283
219 221 196 211 202 207 211 216 220 219 226 244 244 248 231 248 254 258 258 268 280 293 300 305 303 306 306 302 303 318 316 319 311 308 302 290 271 264 282 280 283 292 289 295
227 227 213 210 198 204 213 218 223 225 219 239 244 234 240 249 253 255 255 269 287 290 292 294 297 298 300 300 304 306 322 312 315 317 311 276 294 286 291 285 293 289 288 295
222 225 215 209 201 217 215 216 219 227 228 229 239 234 232 239 251 258 264 273 277 282 284 282 286 287 293 297 302 303 311 312 304 303 307 295 278 291 286 283 286 284 283 283
213 220 219 209 204 219 225 220 230 235 227 224 233 240 234 245 240 240 250 261 271 274 273 274 277 283 289 295 289 293 300 305 302 299 294 291 285 285 288 288 287 287 286 279
212 219 218 216 217 228 225 220 231 234 237 228 226 225 220 227 240 251 254 255 260 266 263 265 269 277 282 286 283 293 298 298 303 291 294 293 289 291 291 290 294 292 302 276
203 216 218 215 220 229 225 210 221 233 240 243 243 247 232 242 252 249 250 250 254 257 258 259 264 273 274 273 269 288 296 291 294 292 291 288 285 283 286 285 299 307 306 267
198 206 212 216 222 225 226 237 237 239 246 243 252 258 264 264 258 251 250 250 253 255 252 253 263 277 279 273 290 293 290 290 291 293 291 285 281 283 289 294 296 313 305 257
211 203 206 214 212 220 223 213 224 233 243 249 254 258 261 266 263 250 244 249 249 262 274 274 268 272 286 286 273 287 284 290 294 289 283 281 282 284 289 303 289 296 309 287
236 222 207 204 209 215 217 225 234 234 237 244 250 257 257 260 264 265 244 251 262 266 263 275 282 272 267 293 280 287 286 289 291 284 283 283 282 287 289 285 304 306 294 292
244 249 217 226 226 216 216 219 223 226 231 237 241 246 249 252 256 252 260 253 258 263 270 259 273 271 272 281 289 287 288 279 276 283 297 295 288 289 294 297 304 291 295 299
228 232 243 244 243 238 229 230 222 230 232 240 242 246 246 243 262 273 264 280 284 286 290 273 291 275 274 276 278 281 283 290 298 301 292 293 301 292 293 293 298 301 290 293
Height
5878 5882 5884 5891 5894 5891 5896 5899 5906 5909 5910 5911 5912 5914 5915 5913 5913 5912 5912 5912 5912 5913 5914 5914 5913 5913 5913 5913 5913 5914 5914 5914 5916 5915 5915 5914 5913 5913 5912 5911 5910 5908 5907 5905
5875 5878 5887 5889 5891 5892 5893 5895 5900 5903 5908 5909 5911 5912 5913 5912 5912 5912 5913 5913 5913 5914 5915 5915 5914 5912 5912 5912 5913 5914 5914 5914 5915 5915 5914 5912 5912 5911 5910 5909 5907 5905 5904 5902
5872 5881 5881 5885 5887 5889 5891 5895 5900 5902 5903 5905 5906 5907 5911 5911 5912 5912 5913 5913 5912 5912 5912 5913 5913 5912 5911 5912 5912 5913 5913 5913 5912 5912 5912 5911 5910 5908 5907 5906 5904 5902 5900 5899
5866 5875 5875 5878 5883 5887 5890 5896 5899 5899 5897 5900 5903 5903 5907 5909 5910 5912 5912 5912 5910 5909 5909 5910 5910 5911 5911 5911 5911 5911 5910 5910 5909 5910 5910 5909 5907 5905 5904 5902 5900 5898 5897 5895
5859 5867 5871 5873 5881 5884 5891 5894 5896 5896 5894 5894 5896 5898 5904 5905 5907 5909 5910 5909 5908 5906 5906 5906 5907 5907 5909 5909 5909 5908 5907 5907 5907 5907 5907 5905 5903 5902 5900 5898 5897 5895 5893 5891
5853 5860 5865 5870 5879 5881 5890 5889 5889 5890 5889 5885 5891 5895 5896 5900 5903 5905 5907 5907 5906 5904 5903 5902 5903 5903 5905 5906 5905 5904 5904 5904 5904 5904 5903 5902 5899 5897 5896 5894 5892 5891 5888 5886
5844 5848 5856 5863 5870 5875 5878 5882 5882 5883 5880 5879 5888 5888 5891 5897 5899 5901 5902 5903 5903 5902 5898 5899 5900 5901 5901 5902 5901 5900 5901 5901 5900 5899 5899 5897 5896 5894 5892 5890 5887 5884 5882 5879
5836 5841 5846 5853 5858 5866 5872 5876 5876 5875 5877 5880 5881 5878 5888 5893 5894 5897 5898 5899 5899 5898 5896 5896 5896 5897 5897 5896 5896 5896 5896 5897 5895 5894 5892 5891 5891 5890 5888 5885 5882 5879 5876 5873
5827 5834 5842 5844 5853 5860 5864 5864 5873 5872 5871 5874 5875 5877 5882 5887 5890 5892 5894 5895 5896 5895 5894 5896 5894 5892 5891 5890 5891 5892 5892 5891 5890 5888 5886 5886 5885 5883 5881 5879 5876 5873 5870 5869
5820 5828 5835 5841 5845 5850 5853 5863 5864 5863 5864 5865 5869 5871 5876 5882 5885 5886 5887 5890 5891 5892 5892 5893 5891 5889 5888 5888 5889 5889 5887 5886 5884 5883 5882 5881 5879 5877 5874 5872 5871 5869 5867 5864
5809 5816 5829 5831 5832 5842 5847 5850 5855 5859 5859 5859 5862 5865 5871 5875 5879 5881 5884 5886 5887 5889 5889 5890 5889 5886 5886 5887 5887 5885 5882 5880 5878 5877 5877 5876 5873 5870 5867 5865 5864 5862 5860 5858
5796 5805 5814 5821 5829 5836 5840 5844 5849 5850 5852 5854 5856 5861 5868 5871 5872 5875 5878 5881 5882 5884 5886 5885 5884 5884 5883 5884 5883 5882 5879 5876 5873 5871 5870 5868 5866 5862 5859 5857 5856 5856 5855 5851
5788 5792 5803 5810 5819 5824 5827 5835 5841 5844 5849 5848 5852 5857 5863 5865 5867 5870 5872 5874 5877 5877 5878 5881 5880 5879 5879 5880 5878 5877 5874 5872 5869 5866 5863 5860 5856 5854 5852 5850 5849 5847 5845 5842
5783 5786 5792 5800 5811 5818 5823 5830 5836 5839 5840 5844 5846 5851 5855 5858 5861 5863 5868 5869 5870 5872 5873 5873 5873 5874 5874 5874 5874 5872 5870 5867 5864 5860 5856 5852 5849 5847 5844 5842 5841 5838 5836 5833
5773 5778 5785 5797 5805 5813 5820 5825 5829 5831 5835 5838 5843 5845 5849 5852 5855 5857 5860 5862 5863 5867 5867 5867 5866 5867 5867 5867 5866 5865 5863 5860 5857 5852 5848 5844 5840 5838 5835 5833 5829 5828 5826 5823
5770 5774 5780 5786 5797 5806 5812 5818 5821 5824 5829 5834 5837 5839 5844 5847 5848 5850 5852 5854 5855 5857 5858 5858 5858 5859 5860 5860 5859 5858 5856 5853 5849 5843 5840 5834 5836 5821 5825 5822 5817 5820 5817 5814
5765 5770 5775 5777 5788 5798 5801 5808 5812 5817 5821 5828 5828 5834 5837 5839 5841 5844 5846 5848 5848 5849 5851 5852 5851 5851 5851 5853 5853 5852 5849 5845 5840 5837 5833 5823 5823 5821 5821 5816 5812 5812 5809 5806
5759 5764 5769 5775 5781 5783 5794 5802 5805 5809 5814 5819 5821 5826 5830 5832 5835 5838 5839 5841 5842 5843 5844 5846 5844 5844 5844 5845 5846 5843 5840 5838 5834 5830 5825 5821 5785 5807 5812 5807 5804 5802 5799 5798
5754 5758 5763 5766 5774 5780 5786 5793 5797 5803 5805 5809 5814 5819 5823 5827 5830 5832 5833 5835 5837 5837 5837 5838 5837 5836 5837 5837 5835 5833 5830 5828 5824 5821 5815 5814 5810 5807 5805 5802 5797 5792 5788 5783
5748 5752 5758 5764 5768 5769 5777 5782 5789 5794 5796 5798 5804 5811 5815 5819 5822 5825 5826 5828 5829 5829 5830 5830 5828 5830 5829 5828 5825 5822 5819 5816 5812 5806 5805 5803 5802 5801 5798 5791 5786 5781 5772 5768
5739 5745 5750 5757 5760 5764 5770 5776 5780 5786 5791 5793 5799 5804 5810 5813 5815 5817 5818 5817 5819 5820 5819 5819 5819 5820 5820 5815 5811 5811 5809 5805 5799 5795 5794 5792 5791 5788 5785 5780 5776 5770 5758 5753
5727 5738 5745 5750 5754 5758 5765 5771 5776 5780 5781 5786 5792 5797 5799 5802 5806 5808 5808 5810 5811 5810 5808 5806 5809 5813 5809 5803 5802 5801 5799 5796 5791 5787 5783 5782 5781 5775 5772 5769 5764 5760 5753 5750
5723 5727 5738 5744 5746 5751 5758 5761 5768 5774 5777 5781 5784 5785 5789 5792 5794 5797 5798 5800 5797 5793 5799 5795 5797 5798 5797 5798 5793 5789 5787 5785 5780 5778 5774 5770 5767 5764 5761 5758 5756 5753 5750 5747
5710 5714 5727 5736 5740 5746 5750 5755 5760 5764 5767 5771 5774 5777 5780 5782 5785 5786 5784 5786 5786 5786 5786 5786 5786 5784 5785 5784 5779 5774 5771 5769 5766 5762 5759 5754 5752 5752 5750 5748 5747 5742 5740 5734
5707 5709 5717 5725 5729 5735 5740 5745 5749 5753 5756 5760 5763 5767 5769 5771 5773 5773 5771 5771 5772 5772 5772 5768 5770 5770 5772 5769 5766 5762 5756 5748 5749 5748 5747 5747 5745 5741 5739 5739 5735 5731 5727 5722
5700 5708 5713 5714 5723 5727 5728 5734 5736 5738 5743 5747 5750 5754 5756 5758 5759 5758 5759 5759 5758 5758 5756 5757 5758 5758 5756 5756 5756 5752 5747 5735 5739 5737 5736 5735 5735 5733 5729 5725 5722 5717 5717 5714